KC1SQ Weather Reports


Display with metric or nautical units.
time (UTC)temp
F
wind
direction
speed
MPH
gust
MPH
rain 1hr
in
rain 24hr
in
rain mn
in
humidity
%
barometer
mb
20260505161709 79 179 2.0 12.0 0.00 0.00 0.00 29 1006.0
20260505161207 79 299 2.0 12.0 0.00 0.00 0.00 29 1005.9
20260505160708 79 190 1.0 9.0 0.00 0.00 0.00 29 1006.1
20260505160206 78 130 1.0 7.0 0.00 0.00 0.00 30 1006.1
20260505152703 76 156 1.0 6.0 0.00 0.00 0.00 33 1006.9
20260505152201 75 299 1.0 7.0 0.00 0.00 0.00 32 1006.9
20260505151703 74 302 1.0 7.0 0.00 0.00 0.00 33 1007.1
20260505151657 74 161 1.0 9.0 0.00 0.00 0.00 33 1007.1
20260505150659 73 213 2.0 9.0 0.00 0.00 0.00 34 1007.1
20260505150200 73 277 1.0 8.0 0.00 0.00 0.00 34 1007.2
20260505140416 68 209 0.0 4.0 0.00 0.00 0.00 37 1006.7
20260505124620 62 218 0.0 4.0 0.00 0.00 0.00 45 1007.6
20260505124119 62 233 0.0 0.0 0.00 0.00 0.00 45 1007.3
20260505123617 62 213 0.0 0.0 0.00 0.00 0.00 45 1007.2
20260505123115 61 83 0.0 0.0 0.00 0.00 0.00 45 1006.9
20260505122614 61 259 0.0 0.0 0.00 0.00 0.00 47 1007.0
20260505122112 60 214 0.0 0.0 0.00 0.00 0.00 47 1007.0
20260505121610 60 173 0.0 0.0 0.00 0.00 0.00 47 1006.9
20260505121108 60 163 0.0 0.0 0.00 0.00 0.00 48 1007.0
20260505120607 59 156 0.0 0.0 0.00 0.00 0.00 49 1007.0
20260505120104 58 108 0.0 0.0 0.00 0.00 0.00 49 1007.2
20260505115601 58 217 0.0 0.0 0.00 0.00 0.00 50 1007.3
20260505115101 57 184 0.0 0.0 0.00 0.00 0.00 51 1007.3
20260505114558 57 225 0.0 0.0 0.00 0.00 0.00 51 1007.3
20260505114056 56 257 0.0 0.0 0.00 0.00 0.00 52 1007.3
20260505113555 56 317 0.0 0.0 0.00 0.00 0.00 53 1007.3
20260505113316 55 239 0.0 0.0 0.00 0.00 0.00 54 1007.3
20260505112548 55 179 0.0 0.0 0.00 0.00 0.00 55 1007.4
20260505112042 54 232 0.0 0.0 0.00 0.00 0.00 57 1007.3
20260505111536 53 232 0.0 0.0 0.00 0.00 0.00 57 1007.4
20260505111031 52 232 0.0 0.0 0.00 0.00 0.00 59 1007.5
20260505110745 51 232 0.0 0.0 0.00 0.00 0.00 60 1007.6
20260505101930 47 276 0.0 0.0 0.00 0.00 0.00 65 1007.5
20260505101424 46 276 0.0 0.0 0.00 0.00 0.00 65 1007.4
20260505101142 46 276 0.0 0.0 0.00 0.00 0.00 65 1007.5
20260505100412 46 276 0.0 0.0 0.00 0.00 0.00 65 1007.3
20260505095906 46 276 0.0 0.0 0.00 0.00 0.00 65 1007.4
20260505095400 46 276 0.0 0.0 0.00 0.00 0.00 65 1007.5
20260505095330 46 276 0.0 0.0 0.00 0.00 0.00 65 1007.4
20260505094348 46 275 0.0 0.0 0.00 0.00 0.00 65 1007.4
20260505094111 46 275 0.0 0.0 0.00 0.00 0.00 64 1007.4
20260505093337 46 275 0.0 0.0 0.00 0.00 0.00 64 1007.4
20260505092830 46 275 0.0 0.0 0.00 0.00 0.00 64 1007.4
20260505092324 46 275 0.0 0.0 0.00 0.00 0.00 65 1007.4
20260505092257 46 275 0.0 0.0 0.00 0.00 0.00 65 1007.4
20260505091312 46 275 0.0 0.0 0.00 0.00 0.00 64 1007.4
20260505090806 46 275 0.0 0.0 0.00 0.00 0.00 65 1007.5
20260505090524 46 275 0.0 0.0 0.00 0.00 0.00 64 1007.5
20260505085754 47 275 0.0 0.0 0.00 0.00 0.00 64 1007.4
20260505085248 47 275 0.0 0.0 0.00 0.00 0.00 64 1007.5
20260505084742 47 275 0.0 0.0 0.00 0.00 0.00 64 1007.5
20260505084236 47 275 0.0 0.0 0.00 0.00 0.00 64 1007.7
20260505083730 47 275 0.0 0.0 0.00 0.00 0.00 64 1007.7
20260505083224 47 275 0.0 0.0 0.00 0.00 0.00 63 1007.7
20260505082718 47 275 0.0 0.0 0.00 0.00 0.00 63 1007.7
20260505082432 47 275 0.0 0.0 0.00 0.00 0.00 63 1007.7
20260505081706 47 275 0.0 0.0 0.00 0.00 0.00 63 1007.8
20260505081200 48 275 0.0 0.0 0.00 0.00 0.00 62 1007.8
20260505080654 48 275 0.0 0.0 0.00 0.00 0.00 62 1007.9
20260505080147 48 275 0.0 0.0 0.00 0.00 0.00 61 1007.9
20260505075644 49 275 0.0 0.0 0.00 0.00 0.00 61 1007.9
20260505075136 49 275 0.0 0.0 0.00 0.00 0.00 60 1007.9
20260505074629 49 275 0.0 0.0 0.00 0.00 0.00 60 1007.9
20260505074124 50 275 0.0 0.0 0.00 0.00 0.00 59 1007.9
20260505073619 50 275 0.0 0.0 0.00 0.00 0.00 59 1007.9
20260505073112 50 275 0.0 0.0 0.00 0.00 0.00 58 1007.9
20260505072606 50 275 0.0 0.0 0.00 0.00 0.00 58 1007.9
20260505072100 50 275 0.0 0.0 0.00 0.00 0.00 58 1007.8
20260505071554 51 275 0.0 0.0 0.00 0.00 0.00 57 1007.8
20260505071048 51 275 0.0 0.0 0.00 0.00 0.00 57 1007.7
20260505070542 51 275 0.0 0.0 0.00 0.00 0.00 56 1007.8
20260505070518 51 275 0.0 0.0 0.00 0.00 0.00 56 1007.8
20260505065530 51 278 0.0 0.0 0.00 0.00 0.00 56 1007.8
20260505065024 51 260 0.0 0.0 0.00 0.00 0.00 56 1007.8
20260505064748 52 159 0.0 0.0 0.00 0.00 0.00 55 1007.8
20260505064013 52 159 0.0 0.0 0.00 0.00 0.00 54 1007.9
20260505063506 52 159 0.0 0.0 0.00 0.00 0.00 54 1007.9
20260505063000 52 159 0.0 0.0 0.00 0.00 0.00 54 1007.8
20260505062454 52 195 0.0 0.0 0.00 0.00 0.00 54 1007.8
20260505061948 53 195 0.0 0.0 0.00 0.00 0.00 53 1007.8
20260505061442 53 196 0.0 0.0 0.00 0.00 0.00 53 1007.8
20260505060936 53 196 0.0 0.0 0.00 0.00 0.00 53 1007.8
20260505060430 53 196 0.0 0.0 0.00 0.00 0.00 53 1007.8
20260505055924 53 196 0.0 0.0 0.00 0.00 0.00 52 1007.9
20260505055639 54 182 0.0 0.0 0.00 0.00 0.00 52 1007.8
20260505054916 54 182 0.0 0.0 0.00 0.00 0.00 52 1007.9
20260505054412 54 250 0.0 0.0 0.00 0.00 0.00 52 1007.9
20260505053912 54 235 0.0 0.0 0.00 0.00 0.00 52 1007.9
20260505053409 54 235 0.0 0.0 0.00 0.00 0.00 52 1007.9
20260505052908 55 203 0.0 0.0 0.00 0.00 0.00 51 1007.9
20260505052405 55 203 0.0 0.0 0.00 0.00 0.00 50 1007.9
20260505051904 55 203 0.0 0.0 0.00 0.00 0.00 50 1007.9
20260505051401 55 203 0.0 0.0 0.00 0.00 0.00 49 1007.8
20260505050900 55 234 0.0 0.0 0.00 0.00 0.00 49 1007.9
20260505050359 55 118 0.0 0.0 0.00 0.00 0.00 49 1007.8
20260505050120 56 53 0.0 0.0 0.00 0.00 0.00 49 1007.8
20260505041400 56 215 0.0 0.0 0.00 0.00 0.00 48 1007.5
20260505040900 55 181 0.0 0.0 0.00 0.00 0.00 47 1007.5
20260505040359 56 181 0.0 0.0 0.00 0.00 0.00 47 1007.3
20260505035858 56 319 0.0 0.0 0.00 0.00 0.00 47 1007.3
20260505035352 56 212 0.0 0.0 0.00 0.00 0.00 47 1007.1
20260505034846 56 212 0.0 0.0 0.00 0.00 0.00 47 1007.1
20260505034340 55 247 0.0 0.0 0.00 0.00 0.00 47 1007.0
20260505033834 55 247 0.0 0.0 0.00 0.00 0.00 48 1007.0
20260505033328 54 254 0.0 0.0 0.00 0.00 0.00 48 1007.0
20260505032823 54 265 0.0 0.0 0.00 0.00 0.00 49 1007.0
20260505032316 53 273 0.0 0.0 0.00 0.00 0.00 50 1006.9
20260505031810 53 274 0.0 0.0 0.00 0.00 0.00 53 1006.9
20260505031304 52 142 0.0 0.0 0.00 0.00 0.00 54 1006.9
20260505030758 52 213 0.0 0.0 0.00 0.00 0.00 56 1006.9
20260505030252 52 213 0.0 0.0 0.00 0.00 0.00 56 1006.9
20260505025746 52 213 0.0 0.0 0.00 0.00 0.00 57 1006.9
20260505025241 52 213 0.0 0.0 0.00 0.00 0.00 57 1006.8
20260505024741 52 213 0.0 0.0 0.00 0.00 0.00 58 1006.9
20260505024239 52 213 0.0 0.0 0.00 0.00 0.00 57 1006.8
20260505023740 52 213 0.0 0.0 0.00 0.00 0.00 57 1006.8
20260505023239 52 213 0.0 0.0 0.00 0.00 0.00 57 1006.9
20260505022959 52 213 0.0 0.0 0.00 0.00 0.00 57 1006.8
20260505022239 53 213 0.0 0.0 0.00 0.00 0.00 57 1006.9
20260505021740 53 213 0.0 0.0 0.00 0.00 0.00 56 1006.9
20260505021239 53 213 0.0 0.0 0.00 0.00 0.00 57 1006.8
20260505021003 53 213 0.0 0.0 0.00 0.00 0.00 56 1006.8
20260505020236 53 213 0.0 0.0 0.00 0.00 0.00 57 1006.8
20260505015735 53 213 0.0 0.0 0.00 0.00 0.00 55 1006.7
20260505015235 53 213 0.0 0.0 0.00 0.00 0.00 56 1006.8
20260505014735 53 213 0.0 0.0 0.00 0.00 0.00 55 1006.7
20260505014235 54 213 0.0 0.0 0.00 0.00 0.00 55 1006.7
20260505013734 54 213 0.0 0.0 0.00 0.00 0.00 55 1006.6
20260505013331 54 213 0.0 0.0 0.00 0.00 0.00 55 1006.5
20260505012236 54 213 0.0 0.0 0.00 0.00 0.00 54 1006.4
20260505011732 54 213 0.0 0.0 0.00 0.00 0.00 54 1006.3
20260505011456 54 213 0.0 0.0 0.00 0.00 0.00 53 1006.2
20260505010731 55 213 0.0 0.0 0.00 0.00 0.00 53 1006.2
20260505010230 55 213 0.0 0.0 0.00 0.00 0.00 53 1006.2
20260505005952 55 213 0.0 0.0 0.00 0.00 0.00 52 1006.1
20260505005232 55 213 0.0 0.0 0.00 0.00 0.00 52 1006.2
20260505004732 56 213 0.0 0.0 0.00 0.00 0.00 51 1006.1
20260505004230 56 213 0.0 0.0 0.00 0.00 0.00 50 1006.1
20260505003732 56 213 0.0 0.0 0.00 0.00 0.00 50 1006.0
20260505003225 57 213 0.0 0.0 0.00 0.00 0.00 49 1005.8
20260505002718 58 213 0.0 0.0 0.00 0.00 0.00 48 1005.7
20260505002213 58 213 0.0 0.0 0.00 0.00 0.00 47 1005.7
20260505001707 59 213 0.0 0.0 0.00 0.00 0.00 47 1005.6
20260505001202 59 213 0.0 0.0 0.00 0.00 0.00 45 1005.5
20260505000655 60 213 0.0 0.0 0.00 0.00 0.00 44 1005.5
20260505000150 61 213 0.0 0.0 0.00 0.00 0.00 41 1005.4
20260504235643 61 213 0.0 0.0 0.00 0.00 0.00 40 1005.3
20260504235137 62 213 0.0 0.0 0.00 0.00 0.00 40 1005.4
20260504234631 63 213 0.0 0.0 0.00 0.00 0.00 38 1005.3
20260504234612 63 213 0.0 0.0 0.00 0.00 0.00 38 1005.3
20260504233619 64 213 0.0 0.0 0.00 0.00 0.00 32 1005.3
20260504233113 65 213 0.0 0.0 0.00 0.00 0.00 34 1005.2
20260504232607 66 213 0.0 0.0 0.00 0.00 0.00 33 1005.2
20260504232101 66 213 0.0 0.0 0.00 0.00 0.00 31 1005.1
20260504231555 67 213 0.0 0.0 0.00 0.00 0.00 28 1005.0
20260504231049 67 214 0.0 0.0 0.00 0.00 0.00 28 1004.9
20260504230541 67 213 0.0 0.0 0.00 0.00 0.00 27 1004.8
20260504230035 67 228 0.0 2.0 0.00 0.00 0.00 26 1004.7
20260504225529 68 246 0.0 2.0 0.00 0.00 0.00 26 1004.7
20260504225023 68 186 0.0 2.0 0.00 0.00 0.00 26 1004.6
20260504224517 68 243 0.0 6.0 0.00 0.00 0.00 26 1004.5
20260504224011 68 248 1.0 6.0 0.00 0.00 0.00 25 1004.6
20260504223505 69 185 1.0 5.0 0.00 0.00 0.00 25 1004.5
20260504222959 69 227 1.0 6.0 0.00 0.00 0.00 25 1004.6
20260504222453 69 192 1.0 6.0 0.00 0.00 0.00 25 1004.5
20260504222205 69 208 0.0 0.0 0.00 0.00 0.00 24 1004.5
20260504221441 70 338 0.0 0.0 0.00 0.00 0.00 25 1004.5
20260504220935 70 234 0.0 0.0 0.00 0.00 0.00 25 1004.6
20260504220429 70 296 1.0 6.0 0.00 0.00 0.00 24 1004.6
20260504215923 70 173 1.0 8.0 0.00 0.00 0.00 24 1004.6
20260504215417 71 224 1.0 8.0 0.00 0.00 0.00 22 1004.5
20260504215137 71 333 1.0 5.0 0.00 0.00 0.00 22 1004.5
20260504214902 71 306 1.0 5.0 0.00 0.00 0.00 23 1004.6
20260504213859 71 228 1.0 8.0 0.00 0.00 0.00 22 1004.5
20260504213352 71 142 1.0 8.0 0.00 0.00 0.00 23 1004.5
20260504212847 71 217 0.0 2.0 0.00 0.00 0.00 23 1004.4
20260504212341 70 292 0.0 2.0 0.00 0.00 0.00 24 1004.6
20260504211834 70 319 0.0 2.0 0.00 0.00 0.00 24 1004.5
20260504211329 70 221 1.0 6.0 0.00 0.00 0.00 25 1004.5
20260504211039 70 18 1.0 6.0 0.00 0.00 0.00 24 1004.4
20260504210537 71 178 0.0 5.0 0.00 0.00 0.00 25 1004.4
20260504205811 71 293 1.0 7.0 0.00 0.00 0.00 23 1004.5
20260504205305 71 194 2.0 10.0 0.00 0.00 0.00 23 1004.4
20260504204759 71 257 2.0 10.0 0.00 0.00 0.00 25 1004.4
20260504204253 70 211 2.0 9.0 0.00 0.00 0.00 24 1004.3
20260504203747 70 273 1.0 7.0 0.00 0.00 0.00 24 1004.4
20260504203241 70 232 1.0 5.0 0.00 0.00 0.00 25 1004.4
20260504202957 70 201 1.0 8.0 0.00 0.00 0.00 24 1004.3
20260504202230 70 84 1.0 8.0 0.00 0.00 0.00 24 1004.3
20260504201723 71 40 2.0 5.0 0.00 0.00 0.00 24 1004.3
20260504201217 70 271 2.0 5.0 0.00 0.00 0.00 26 1004.4
20260504200931 70 203 1.0 5.0 0.00 0.00 0.00 26 1004.5
20260504200205 71 263 1.0 4.0 0.00 0.00 0.00 26 1004.5
20260504195659 71 247 2.0 9.0 0.00 0.00 0.00 25 1004.6
20260504195153 71 262 2.0 9.0 0.00 0.00 0.00 23 1004.5
20260504195134 71 350 2.0 9.0 0.00 0.00 0.00 24 1004.5
20260504194141 72 275 2.0 7.0 0.00 0.00 0.00 23 1004.6
20260504193635 72 313 2.0 7.0 0.00 0.00 0.00 24 1004.7
20260504193129 72 240 1.0 6.0 0.00 0.00 0.00 24 1004.6
20260504192623 72 225 2.0 7.0 0.00 0.00 0.00 24 1004.6
20260504192117 72 205 1.0 7.0 0.00 0.00 0.00 24 1004.6
20260504191611 71 211 1.0 6.0 0.00 0.00 0.00 25 1004.7
20260504191105 71 181 2.0 6.0 0.00 0.00 0.00 25 1004.6
20260504190559 70 245 2.0 15.0 0.00 0.00 0.00 26 1004.7
20260504190313 70 156 3.0 15.0 0.00 0.00 0.00 25 1004.6
20260504185547 70 174 2.0 14.0 0.00 0.00 0.00 25 1004.6
20260504185305 69 195 2.0 14.0 0.00 0.00 0.00 28 1004.8
20260504184535 68 315 2.0 10.0 0.00 0.00 0.00 27 1005.0
20260504184029 67 241 0.0 10.0 0.00 0.00 0.00 28 1004.9
20260504183522 65 38 0.0 0.0 0.00 0.00 0.00 31 1005.0
20260504183017 65 294 0.0 0.0 0.00 0.00 0.00 31 1005.1
20260504182511 65 268 0.0 0.0 0.00 0.00 0.00 30 1005.1
20260504182005 65 271 0.0 0.0 0.00 0.00 0.00 31 1005.0
20260504181505 65 277 0.0 0.0 0.00 0.00 0.00 29 1005.1
20260504181006 65 269 0.0 0.0 0.00 0.00 0.00 29 1005.0
20260504180503 65 305 0.0 0.0 0.00 0.00 0.00 29 1005.0
20260504180002 65 238 0.0 0.0 0.00 0.00 0.00 28 1004.9
20260504175501 66 305 0.0 0.0 0.00 0.00 0.00 27 1004.9
20260504174959 66 257 0.0 0.0 0.00 0.00 0.00 27 1004.9
20260504174500 67 280 0.0 0.0 0.00 0.00 0.00 26 1004.9
20260504173958 67 239 0.0 0.0 0.00 0.00 0.00 27 1004.9
20260504173725 66 212 0.0 0.0 0.00 0.00 0.00 27 1004.8
20260504172959 65 250 0.0 0.0 0.00 0.00 0.00 27 1004.9
20260504172459 66 273 0.0 0.0 0.00 0.00 0.00 25 1005.0
20260504171957 67 91 0.0 0.0 0.00 0.00 0.00 24 1005.1
20260504171726 68 51 0.0 0.0 0.00 0.00 0.00 24 1004.9
20260504171216 68 273 0.0 0.0 0.00 0.00 0.00 23 1004.9
20260504170500 67 213 0.0 0.0 0.00 0.00 0.00 25 1004.8